Location: Unspecified
(40.7945°N, 0.0000°E)
Time: 09:21:06
(UTC+00:00)

UWE-3 - Visible Passes

Search period start: 14 August 2020 00:00
Search period end: 24 August 2020 00:00
Orbit: 584 x 684 km, 97.6° (Epoch: 13 August)

Date Brightness Start Highest point End Pass type
(mag) Time Alt. Az. Time Alt. Az. Time Alt. Az.
14 Aug ? 03:53:24 10° ENE 03:55:24 13° E 03:57:22 10° ESE visible
15 Aug ? 04:13:46 10° NE 04:17:05 23° E 04:20:24 10° SSE visible
16 Aug ? 04:34:48 10° NNE 04:38:43 40° E 04:42:38 10° SSE visible
18 Aug ? 03:44:34 10° E 03:44:58 10° E 03:45:22 10° E visible
19 Aug ? 04:03:48 10° NE 04:06:42 18° E 04:09:36 10° SE visible
20 Aug ? 04:24:37 10° NNE 04:28:21 31° E 04:32:06 10° SSE visible
21 Aug ? 04:45:50 10° NNE 04:49:56 56° E 04:54:05 10° S visible
23 Aug ? 03:53:58 10° ENE 03:56:18 14° E 03:58:38 10° SE visible
